Regional Weather Roundup
Issued by NWS

Home | Current Version | Previous Version | Text Only | Print | Product List | Glossary Off
Versions: 1 2 3 4 5 6 7 8 9 10 11 12 13 14 15 16 17 18 19 20 21 22 23 24 25 26 27 28 29 30 31 32 33 34 35 36 37 38 39 40 41 42 43 44 45 46 47 48 49 50

000
ASUS45 KABQ 161310
RWRNM
NEW MEXICO REGIONAL WEATHER ROUNDUP
NATIONAL WEATHER SERVICE ALBUQUERQUE NM
700 AM MDT WED AUG 16 2017

NOTE: "FAIR" MEANS FEW OR NO CLOUDS BELOW 12,000 FEET AGL WITH NO
       SIGNIFICANT WEATHER OR OBSTRUCTIONS TO VISION.

      THIS PRODUCT IS RELEASED AS TWO VERSIONS.  ONE VERSION NEAR
      THE TOP OF THE HOUR CONTAINING PRELIMINARY DATA FROM ALBUQUERQUE
      AND OTHER STATIONS.  A FINAL VERSION WITH ADDITIONAL DATA IS
      ISSUED ABOUT 10 MINUTES AFTER THE HOUR.

NMZ501-503-504-510>518-161400-
NORTHWEST PLATEAU/NORTHCENTRAL MOUNTAINS

CITY           SKY/WX    TMP DP  RH WIND       PRES   REMARKS
FARMINGTON     FAIR      48  34  58 NE7       30.14R
LOS ALAMOS     FAIR      60  30  32 W8        30.24R
SANTA FE       FAIR      57  38  48 NE3       30.18R
TAOS           FAIR      48  39  71 E7        30.26R
ANGEL FIRE     FAIR      37  34  88 CALM      30.30R

$$
NMZ402-403-502-505>509-161400-
WESTCENTRAL MOUNTAINS/SOUTHWEST MOUNTAINS

CITY           SKY/WX    TMP DP  RH WIND       PRES   REMARKS
GALLUP         FAIR      42  35  76 NE5       30.22R
GRANTS         FAIR      44  35  70 CALM      30.24R
SILVER CITY    FAIR      55  49  80 N8        30.17R

$$
NMZ407-409-411-412-161400-
SOUTHERN DESERTS

CITY           SKY/WX    TMP DP  RH WIND       PRES   REMARKS
DEMING         FAIR      62  54  74 W8        30.11R
LAS CRUCES     FAIR      69  50  50 W12       30.09R
HOLLOMAN AFB   FAIR      65  56  71 E3        30.05R
ALAMOGORDO     FAIR      68  54  60 S5        30.06R
T OR C         FAIR      68  46  45 NW9       30.10R

$$
NMZ519>523-161400-
CENTRAL VALLEYS/CENTRAL HIGHLANDS

CITY           SKY/WX    TMP DP  RH WIND       PRES   REMARKS
ALBUQUERQUE    FAIR      63  40  42 VRB3      30.14R
DOUBLE EAGLE   PTCLDY    55  43  62 CALM      30.17R
MORIARTY ARPT  FAIR      50  46  85 CALM      30.20R
CLINES CORNERS FAIR      53  35  50 W12       30.23R
BELEN          FAIR      59  47  63 CALM      30.14R
SOCORRO        FAIR      63  46  53 NW5       30.12R

$$
NMZ524>526-539-540-161400-
SOUTHCENTRAL MOUNTAINS

CITY           SKY/WX    TMP DP  RH WIND       PRES   REMARKS
RUIDOSO        FAIR      63  36  36 W12       30.23R

$$
NMZ527>531-161400-
NORTHEAST HIGHLANDS/NORTHEAST PLAINS

CITY           SKY/WX    TMP DP  RH WIND       PRES   REMARKS
LAS VEGAS      FAIR      55  35  47 NE7       30.19R
RATON          FAIR      56  48  74 N14       30.14R
CLAYTON        FAIR      59  54  83 N10       30.07R

$$
NMZ532>537-161400-
EASTCENTRAL PLAINS

CITY           SKY/WX    TMP DP  RH WIND       PRES   REMARKS
SANTA ROSA     FAIR      61  42  49 W6        30.07R
TUCUMCARI      FAIR      66  55  67 NE10      30.00R
CANNON AFB     FAIR      65  64  97 NW8       30.01R
CLOVIS AIRPORT NOT AVBL

$$
NMZ028-029-538-161400-
SOUTHEAST PLAINS

CITY           SKY/WX    TMP DP  RH WIND       PRES   REMARKS
ROSWELL        FAIR      66  55  67 NW6       29.98R
ARTESIA        FAIR      68  55  64 NW9       29.98R
CARLSBAD       FAIR      69  63  81 N8        29.95R
HOBBS          CLEAR     64  63  94 CALM      29.98R


$$




USA.gov is the U.S. government's official web portal to all federal, state and local government web resources and services.